星链-5050 (STARLINK-5050 )

导读

STARLINK-5050是美国太空探索技术公司(SpaceX)发射的星链(Starlink)卫星,于2022年9月24日发射,属于星链星座组网卫星,旨在为全球提供高速低延迟互联网服务,尤其覆盖偏远地区与网络基础设施薄弱区域,依托星链星座部署推动全球互联互通,目前在轨运行服务。

Basic Information
目录编号:
53890
目录名称:
STARLINK-5050
国际标识:
2022-119E
轨道中心:
EARTH
卫星名称:
星链-5050
卫星全名:
星链-5050 (STARLINK-5050 )
卫星状态:
在轨 (已飞行1441 天)
发射日期:
2022-09-24 UTC
国别 :
美国 (US)
星等 :
--
Orbit Information
数据来源 国际轨道数据 AOE轨道数据
星历时间 2026-09-04T14:38:25+0800
11小时前
查看轨道信息
2026-08-29T23:00:00+0800
6天前
查看轨道信息
半长轴 6848.877km 6848.882km
偏心率 0.0001337 0.0001941
轨道倾角 53.159° 53.155°
近地点辐角 81.205° 82.489°
升交点赤经 199.294° 225.610°
平近点角 278.910° 56.119°
近地点 469.824km 469.415km
远地点 471.656km 472.075km
周期 94.013分钟 94.013分钟
每日圈数 15.317 15.316986
Detailed Information
固有亮度:
5
最大亮度:
2.5
卫星平台:
Starlink v1.5
覆盖范围:
全球
运营商:
太空探索技术公司
运营商所在国:
美国
制造商(研发单位):
太空探索技术公司
制造商所在国:
美国
使用方式:
暂无
Satellite Introduction
星链(Starlink)计划是由太空探索技术公司(SpaceX)提出的一个巨型低轨卫星互联网星座项目,计划在2019年至2024年间在太空搭建由约1.2万颗卫星组成的“星链”网络,其中1584颗将部署在地球上空550千米处的近地轨道,并从2020年开始工作。该卫星仍在工作。
2D Orbit Map
3D Orbit Map
Orbit Altitude Analysis Chart
Orbit Inclination Analysis Chart
Orbit Comprehensive Analysis Chart
View Comprehensive Chart
Conjunction Data List
Event ID Objects TCA Miss Dist (km) Collision Risk Probability Collision Risk Index (CRI) Action
CDM_260907-044905-389006-410121
2026-09-07T
04:49:44+0000
0.426 km
远距离
1.986581E-4 高风险 0.81
CDM_260906-153905-389006-443621
2026-09-06T
15:39:32+0000
2.263 km
极远距离
1.972621E-6 低风险 0.41
CDM_260907-061705-389005-674821
OBJECT F (56748)
2026-09-07T
06:17:42+0000
2.537 km
极远距离
1.482137E-6 低风险 0.38
CDM_260907-062305-389006-410121
2026-09-07T
06:23:42+0000
2.225 km
极远距离
1.478155E-6 低风险 0.38
CDM_260904-224305-389006-758222
2026-09-04T
22:43:13+0000
2.876 km
极远距离
1.285809E-6 低风险 0.37
CDM_260907-031505-389006-410121
2026-09-07T
03:15:47+0000
2.459 km
极远距离
1.218651E-6 低风险 0.37
CDM_260905-080605-389006-772821
2026-09-05T
08:06:13+0000
2.978 km
极远距离
1.215137E-6 低风险 0.37
CDM_260906-125805-389006-798521
2026-09-06T
12:58:47+0000
2.816 km
极远距离
1.138313E-6 低风险 0.36